North Platte, NE

12:23 PM CDT on May 25, 2017 (GMT -0500)
North Platte Regional-Bird

Weather History for KLBF - October, 2012

Change the Weather History Date:

Tuesday, October 16, 2012

  Actual Average Record
Temperature  
Mean Temperature 59 °F 49 °F  
Max Temperature 77 °F 65 °F 89 °F (1991)
Min Temperature 40 °F 34 °F 11 °F (1969)
Degree Days  
Heating Degree Days 6 16  
Month to date heating degree days 285 211  
Since 1 July heating degree days 420 382  
Cooling Degree Days 0 0  
Month to date cooling degree days 2 0  
Year to date cooling degree days 1245 765  
Growing Degree Days 8 (Base 50)    
Moisture  
Dew Point 36 °F    
Average Humidity 47    
Maximum Humidity 70    
Minimum Humidity 23    
Precipitation  
Precipitation T in 0.05 in 0.98 in (1897)
Month to date precipitation 0.17 0.85  
Year to date precipitation 9.51 18.48  
Snow  
Snow 0.00 in 0.10 in 0.20 in (1930)
Month to date snowfall 0.9 0.7  
Since 1 July snowfall 0.9 0.9  
Since 1 September snowfall 0.9 0.9  
Snow Depth 0.00 in    
Sea Level Pressure  
Sea Level Pressure 29.60 in    
Wind  
Wind Speed 8 mph (West)    
Max Wind Speed 24 mph    
Max Gust Speed 29 mph    
Visibility 10 miles    
Events Rain    
T = Trace of Precipitation, MM = Missing Value Source: NWS Daily Summary

Daily Weather History Graph

Daily Weather History Graph

Search for Another Location

Airport or City:

Trip Planner

Search our weather history database for the weather conditions in past years. The results will help you decide how hot, cold, wet, or windy it might be!

Date:

Astronomy

Oct. 16, 2012 Rise Set
Actual Time 7:55 AM CDT 6:59 PM CDT
Civil Twilight 7:28 AM CDT 7:27 PM CDT
Nautical Twilight 6:56 AM CDT 7:59 PM CDT
Astronomical Twilight 6:24 AM CDT 8:31 PM CDT
Moon 9:22 AM CDT (10/16) 7:44 PM CDT (10/16)
Length of Visible Light 11h 59m
Length of Day
11h 03m
New Moon, 2% of the Moon is Illuminated
Oct 16
New Moon
Oct 21
First Quarter
Oct 29
Full
Nov 6
Last Quarter
Nov 13
New

Hourly Weather History & Observations

Time (CDT) Temp. Windchill Dew Point Humidity Pressure Visibility Wind Dir Wind Speed Gust Speed Precip Events Conditions
12:53 AM 44.1 °F - 32.0 °F 63% 29.70 in 10.0 mi Calm Calm - N/A   Clear
1:53 AM 41.0 °F 37.1 °F 30.9 °F 67% 29.68 in 10.0 mi NW 5.8 mph - N/A   Clear
2:53 AM 43.0 °F 38.2 °F 30.0 °F 60% 29.68 in 10.0 mi NW 8.1 mph - N/A   Clear
3:53 AM 43.0 °F 39.5 °F 32.0 °F 65% 29.68 in 10.0 mi NW 5.8 mph - N/A   Clear
4:53 AM 51.8 °F - 35.6 °F 54% 29.75 in 10.0 mi NW 10.4 mph - N/A   Clear
5:53 AM 50.0 °F - 34.0 °F 54% 29.72 in 10.0 mi NW 9.2 mph - N/A   Clear
6:53 AM 46.4 °F 41.9 °F 35.6 °F 66% 29.78 in 10.0 mi West 9.2 mph - N/A   Clear
7:53 AM 43.0 °F - 34.0 °F 71% 29.77 in 10.0 mi Calm Calm - N/A   Clear
8:53 AM 45.0 °F 43.5 °F 36.0 °F 71% 29.77 in 10.0 mi WNW 3.5 mph - N/A   Clear
9:53 AM 54.0 °F - 37.0 °F 53% 29.76 in 10.0 mi WNW 6.9 mph - N/A   Clear
10:53 AM 60.1 °F - 39.0 °F 46% 29.71 in 10.0 mi West 4.6 mph - N/A   Clear
11:53 AM 66.0 °F - 41.0 °F 40% 29.68 in 10.0 mi Calm Calm - N/A   Clear
12:53 PM 71.1 °F - 39.9 °F 32% 29.64 in 10.0 mi West 8.1 mph - N/A   Clear
1:53 PM 75.0 °F - 39.0 °F 27% 29.59 in 10.0 mi West 10.4 mph - N/A   Clear
2:53 PM 75.9 °F - 37.0 °F 24% 29.53 in 10.0 mi West 11.5 mph - N/A   Clear
3:53 PM 75.9 °F - 35.1 °F 23% 29.50 in 10.0 mi WSW 15.0 mph 21.9 mph N/A   Clear
4:53 PM 75.9 °F - 36.0 °F 23% 29.45 in 10.0 mi SW 9.2 mph - N/A   Clear
5:53 PM 75.9 °F - 36.0 °F 23% 29.44 in 10.0 mi SSW 11.5 mph - N/A   Partly Cloudy
6:53 PM 73.9 °F - 36.0 °F 25% 29.42 in 10.0 mi SW 10.4 mph - N/A   Mostly Cloudy
7:53 PM 69.1 °F - 36.0 °F 30% 29.42 in 10.0 mi SSW 6.9 mph - N/A   Mostly Cloudy
8:53 PM 68.0 °F - 35.1 °F 30% 29.40 in 10.0 mi South 6.9 mph - N/A   Clear
9:53 PM 69.1 °F - 35.1 °F 29% 29.39 in 10.0 mi SSW 9.2 mph 19.6 mph N/A   Scattered Clouds
10:27 PM 66.2 °F - 37.4 °F 35% 29.50 in 10.0 mi West 11.5 mph - 0.00 in Rain Light Rain
10:53 PM 66.9 °F - 45.0 °F 45% 29.41 in 10.0 mi West 10.4 mph - 0.00 in   Scattered Clouds
11:53 PM 62.1 °F - 41.0 °F 46% 29.42 in 10.0 mi West 9.2 mph - N/A   Clear